Weather History for Durango, Mexico

Change the Weather History Date:

Sunday, October 23, 2011

  Actual Average Record
Temperature  
Mean Temperature 60 °F -  
Max Temperature 82 °F 74 °F 88 °F (2012)
Min Temperature 39 °F 40 °F 32 °F (2007)
Degree Days  
Heating Degree Days 4    
Growing Degree Days 10 (Base 50)    
Moisture  
Dew Point 32 °F    
Average Humidity 33    
Maximum Humidity 81    
Minimum Humidity 12    
Precipitation  
Precipitation 0.00 in - - ()
Sea Level Pressure  
Sea Level Pressure 30.06 in    
Wind  
Wind Speed 2 mph ()    
Max Wind Speed 9 mph    
Max Gust Speed -    
Visibility 12.3 miles    
Events      
Averages and records for this station are not official NWS values.
T = Trace of Precipitation, MM = Missing Value Source: Averaged Metar Reports

Daily Weather History Graph

Daily Weather History Graph

Search for Another Location

Airport:

Trip Planner

Search our weather history database for the weather conditions in past years. The results will help you decide how hot, cold, wet, or windy it might be!

Date:

Astronomy

Oct. 23, 2011 Rise Set
Actual Time 7:59 AM CDT 7:25 PM CDT
Civil Twilight 7:36 AM CDT 7:48 PM CDT
Nautical Twilight 7:09 AM CDT 8:14 PM CDT
Astronomical Twilight 6:43 AM CDT 8:41 PM CDT
Moon 4:31 AM CDT (10/23) 5:00 PM CDT (10/23)
Length of Visible Light 12h 11m
Length of Day
11h 25m
Waning Crescent, 14% of the Moon is Illuminated
Oct 23
Waning Crescent
Oct 26
New
Nov 2
First Quarter
Nov 10
Full
Nov 18
Last Quarter

Hourly Weather History & Observations

Time (CDT) Temp. Windchill Dew Point Humidity Pressure Visibility Wind Dir Wind Speed Gust Speed Precip Events Conditions
12:55 AM 60 °F - 36 °F 29% 29.77 in 6 mi NNE 2.2 mph - -  
2:54 AM 53.6 °F - 28.4 °F 38% 30.23 in 10.0 mi WNW 2.3 mph - N/A   Scattered Clouds
3:43 AM 51.8 °F - 30.2 °F 44% 29.85 in 10.0 mi Calm Calm - N/A   Scattered Clouds
3:55 AM 54 °F - 38 °F 42% 29.83 in 6 mi Calm Calm - -  
4:45 AM 46.4 °F - 33.8 °F 62% 30.22 in 10.0 mi Calm Calm - N/A   Clear
5:45 AM 44.6 °F - 35.6 °F 71% 30.22 in 10.0 mi ESE 2.3 mph - N/A   Clear
6:49 AM 42.8 °F 41.1 °F 35.6 °F 76% 29.95 in 10.0 mi SW 3.5 mph - N/A   Clear
6:55 AM 51 °F - 37 °F 48% 29.92 in 6 mi Calm Calm - -  
7:44 AM 39.2 °F - 33.8 °F 81% 30.25 in 12.0 mi East 2.3 mph - N/A   Partly Cloudy
8:45 AM 46.4 °F - 33.8 °F 62% 30.28 in 14.0 mi Calm Calm - N/A   Scattered Clouds
9:50 AM 57 °F - 42 °F 46% 30.04 in 19 mi Calm Calm - -   Partly Cloudy
9:52 AM 57.2 °F - 33.8 °F 41% 29.97 in 14.0 mi Calm Calm - N/A   Partly Cloudy
10:41 AM 64.4 °F - 30.2 °F 28% 30.31 in 14.0 mi NNW 2.3 mph - N/A   Mostly Cloudy
11:44 AM 69.8 °F - 30.2 °F 23% 30.31 in 14.0 mi East 2.3 mph - N/A   Scattered Clouds
12:43 PM 73.4 °F - 28.4 °F 19% 29.90 in 14.0 mi East 3.5 mph - N/A   Clear
12:45 PM 74 °F - 38 °F 17% 30.01 in 19 mi ESE 2.2 mph - -   Partly Cloudy
1:46 PM 75.2 °F - 28.4 °F 18% 30.26 in 14.0 mi SSE 9.2 mph - N/A   Clear
2:51 PM 78.8 °F - 28.4 °F 16% 30.21 in 14.0 mi SE 4.6 mph - N/A   Clear
3:44 PM 78.8 °F - 26.6 °F 15% 29.83 in 14.0 mi SE 5.8 mph - N/A   Clear
3:45 PM 82 °F - 38 °F 12% 29.85 in 25 mi ESE 2.2 mph - -   Scattered Clouds
4:45 PM 80.6 °F - 24.8 °F 13% 30.17 in 14.0 mi Calm Calm - N/A   Clear
5:50 PM 78.8 °F - 24.8 °F 14% 30.17 in 14.0 mi ENE 9.2 mph - N/A   Partly Cloudy
6:48 PM 77.0 °F - 24.8 °F 14% 29.90 in 14.0 mi ENE 5.8 mph - N/A   Partly Cloudy
7:00 PM 78 °F - 40 °F 16% 29.74 in 19 mi ESE 4.5 mph - -   Scattered Clouds
7:41 PM 71.6 °F - 26.6 °F 19% 30.20 in 12.0 mi NE 4.6 mph - N/A   Scattered Clouds
8:52 PM 69.8 °F - 26.6 °F 20% 30.24 in 12.0 mi NE 4.6 mph - N/A   Scattered Clouds
9:50 PM 66.2 °F - 26.6 °F 23% 30.27 in 12.0 mi NE 4.6 mph - N/A   Scattered Clouds
9:59 PM 67 °F - 37 °F 22% 29.77 in 6 mi Calm Calm - -